FW2897 Weather Reports


Display with metric or nautical units.
time (UTC)temp
F
wind
direction
speed
MPH
gust
MPH
rain 1hr
in
rain 24hr
in
rain mn
in
humidity
%
barometer
mb
20260510170156 76 136 3.0 9.0 0.00 0.00 0.00 55 1013.1
20260510165850 76 233 2.0 7.0 0.00 0.00 0.00 57 1013.1
20260510165349 76 143 2.0 6.0 0.00 0.00 0.00 59 1013.1
20260510164621 75 226 3.0 8.0 0.00 0.00 0.00 59 1013.1
20260510164120 75 203 3.0 8.0 0.00 0.00 0.00 58 1013.0
20260510163551 75 240 3.0 7.0 0.00 0.00 0.00 59 1013.1
20260510163047 75 136 2.0 7.0 0.00 0.00 0.00 59 1013.1
20260510162525 74 91 2.0 7.0 0.00 0.00 0.00 58 1013.1
20260510161956 74 217 2.0 5.0 0.00 0.00 0.00 62 1013.1
20260510161939 74 85 2.0 5.0 0.00 0.00 0.00 62 1013.2
20260510160949 74 205 2.0 5.0 0.00 0.00 0.00 61 1013.1
20260510160446 73 139 2.0 5.0 0.00 0.00 0.00 61 1013.1
20260510160144 73 184 2.0 6.0 0.00 0.00 0.00 63 1013.1
20260510155354 73 208 3.0 7.0 0.00 0.00 0.00 63 1013.2
20260510154825 72 211 3.0 7.0 0.00 0.00 0.00 63 1013.2
20260510154325 72 91 2.0 6.0 0.00 0.00 0.00 65 1013.3
20260510154015 72 128 2.0 6.0 0.00 0.00 0.00 64 1013.4
20260510153255 71 132 2.0 6.0 0.00 0.00 0.00 64 1013.4
20260510152750 71 134 1.0 4.0 0.00 0.00 0.00 66 1013.3
20260510152248 71 133 1.0 4.0 0.00 0.00 0.00 69 1013.3
20260510151720 70 151 2.0 4.0 0.00 0.00 0.00 69 1013.4
20260510151218 69 81 2.0 5.0 0.00 0.00 0.00 67 1013.3
20260510150651 69 185 2.0 5.0 0.00 0.00 0.00 69 1013.4
20260510150145 69 160 2.0 5.0 0.00 0.00 0.00 71 1013.3
20260510145620 69 83 2.0 5.0 0.00 0.00 0.00 69 1013.3
20260510145056 69 138 1.0 5.0 0.00 0.00 0.00 69 1013.4
20260510144530 68 139 1.0 3.0 0.00 0.00 0.00 72 1013.4
20260510144003 67 153 1.0 3.0 0.00 0.00 0.00 73 1013.5
20260510143449 66 95 1.0 3.0 0.00 0.00 0.00 73 1013.4
20260510142948 66 98 1.0 3.0 0.00 0.00 0.00 73 1013.5
20260510142714 65 114 1.0 3.0 0.00 0.00 0.00 75 1013.5
20260510141923 65 208 1.0 4.0 0.00 0.00 0.00 75 1013.6
20260510141359 64 127 1.0 4.0 0.00 0.00 0.00 74 1013.5
20260510140840 64 167 1.0 3.0 0.00 0.00 0.00 76 1013.5
20260510140337 63 96 1.0 3.0 0.00 0.00 0.00 77 1013.6
20260510135835 63 120 1.0 3.0 0.00 0.00 0.00 76 1013.4
20260510135559 63 95 1.0 3.0 0.00 0.00 0.00 76 1013.4
20260510134826 64 108 1.0 4.0 0.00 0.00 0.00 75 1013.5
20260510134529 64 148 1.0 4.0 0.00 0.00 0.00 77 1013.5
20260510133741 64 96 1.0 3.0 0.00 0.00 0.00 77 1013.4
20260510133211 63 95 1.0 3.0 0.00 0.00 0.00 77 1013.4
20260510132708 64 89 1.0 3.0 0.00 0.00 0.00 76 1013.4
20260510132149 64 89 0.0 0.0 0.00 0.00 0.00 77 1013.3
20260510131621 63 242 0.0 0.0 0.00 0.00 0.00 78 1013.3
20260510131056 62 241 0.0 0.0 0.00 0.00 0.00 79 1013.5
20260510130533 62 246 0.0 1.0 0.00 0.00 0.00 80 1013.5
20260510130239 61 236 0.0 1.0 0.00 0.00 0.00 82 1013.6
20260510125446 60 280 0.0 1.0 0.00 0.00 0.00 85 1013.5
20260510125414 58 244 0.0 2.0 0.00 0.00 0.00 86 1013.5
20260510124405 58 248 0.0 2.0 0.00 0.00 0.00 87 1013.5
20260510123904 57 278 0.0 2.0 0.00 0.00 0.00 87 1013.5
20260510123401 56 278 0.0 2.0 0.00 0.00 0.00 88 1013.4
20260510123343 56 286 0.0 2.0 0.00 0.00 0.00 88 1013.5
20260510122336 56 244 0.0 2.0 0.00 0.00 0.00 88 1013.5
20260510121811 56 241 0.0 1.0 0.00 0.00 0.00 90 1013.4
20260510121246 56 250 0.0 0.0 0.00 0.00 0.00 91 1013.2
20260510120946 55 302 0.0 2.0 0.00 0.00 0.00 90 1013.2
20260510120215 55 302 0.0 3.0 0.00 0.00 0.00 90 1013.2
20260510120200 54 263 0.0 3.0 0.00 0.00 0.00 91 1013.1
20260510115148 54 282 0.0 2.0 0.00 0.00 0.00 91 1013.0
20260510114631 54 203 0.0 1.0 0.00 0.00 0.00 91 1012.9
20260510114101 54 205 0.0 2.0 0.00 0.00 0.00 91 1012.8
20260510113832 53 246 0.0 2.0 0.00 0.00 0.00 91 1012.8
20260510113102 53 262 0.0 3.0 0.00 0.00 0.00 92 1012.9
20260510112601 53 287 0.0 3.0 0.00 0.00 0.00 91 1012.9
20260510112103 53 195 0.0 0.0 0.00 0.00 0.00 92 1012.7
20260510111756 52 273 0.0 1.0 0.00 0.00 0.00 92 1012.7
20260510111031 52 273 0.0 1.0 0.00 0.00 0.00 92 1012.6
20260510110505 52 237 0.0 1.0 0.00 0.00 0.00 92 1012.6
20260510105935 52 237 0.0 0.0 0.00 0.00 0.00 92 1012.5
20260510105701 52 237 0.0 2.0 0.00 0.00 0.00 92 1012.5
20260510104905 51 237 0.0 2.0 0.00 0.00 0.00 92 1012.5
20260510104339 51 309 0.0 2.0 0.00 0.00 0.00 92 1012.4
20260510104111 51 309 0.0 2.0 0.00 0.00 0.00 92 1012.3
20260510103326 51 252 0.0 0.0 0.00 0.00 0.00 92 1011.9
20260510102823 51 252 0.0 0.0 0.00 0.00 0.00 92 1011.8
20260510102323 51 252 0.0 0.0 0.00 0.00 0.00 92 1011.9
20260510101756 51 252 0.0 0.0 0.00 0.00 0.00 92 1011.9
20260510101519 51 252 0.0 0.0 0.00 0.00 0.00 92 1011.9
20260510100745 51 225 0.0 0.0 0.00 0.00 0.00 92 1012.0
20260510100508 51 225 0.0 0.0 0.00 0.00 0.00 92 1011.8
20260510095715 51 226 0.0 0.0 0.00 0.00 0.00 92 1011.8
20260510095438 51 226 0.0 1.0 0.00 0.00 0.00 92 1011.8
20260510094645 51 226 0.0 1.0 0.00 0.00 0.00 92 1011.7
20260510094142 51 225 0.0 1.0 0.00 0.00 0.00 92 1011.7
20260510093612 51 227 0.0 1.0 0.00 0.00 0.00 92 1011.6
20260510093109 51 226 0.0 4.0 0.00 0.00 0.00 92 1011.6
20260510092602 51 284 0.0 4.0 0.00 0.00 0.00 92 1011.6
20260510092102 51 286 0.0 4.0 0.00 0.00 0.00 92 1011.5
20260510091753 51 287 0.0 4.0 0.00 0.00 0.00 92 1011.8
20260510091255 51 243 1.0 5.0 0.00 0.00 0.00 92 1011.4
20260510090522 51 159 0.0 5.0 0.00 0.00 0.00 92 1011.4
20260510090024 51 245 0.0 6.0 0.00 0.00 0.00 92 1011.2
20260510085520 51 215 1.0 6.0 0.00 0.00 0.00 93 1011.3
20260510085024 51 11 1.0 7.0 0.00 0.00 0.00 93 1011.3
20260510084454 50 265 0.0 7.0 0.00 0.00 0.00 92 1011.4
20260510083955 50 202 0.0 0.0 0.00 0.00 0.00 92 1011.4
20260510083452 50 201 0.0 0.0 0.00 0.00 0.00 92 1011.2
20260510082950 50 201 0.0 0.0 0.00 0.00 0.00 92 1011.2
20260510082421 50 201 0.0 0.0 0.00 0.00 0.00 92 1011.2
20260510081912 50 201 0.0 0.0 0.00 0.00 0.00 92 1011.3
20260510081639 50 201 0.0 0.0 0.00 0.00 0.00 92 1011.0
20260510080900 50 201 0.0 0.0 0.00 0.00 0.00 91 1011.1
20260510080334 50 201 0.0 0.0 0.00 0.00 0.00 91 1011.1
20260510075809 50 201 0.0 0.0 0.00 0.00 0.00 91 1011.0
20260510075241 50 201 0.0 0.0 0.00 0.00 0.00 91 1010.9
20260510074737 50 201 0.0 0.0 0.00 0.00 0.00 91 1010.9
20260510074212 50 201 0.0 0.0 0.00 0.00 0.00 91 1011.0
20260510073645 50 201 0.0 0.0 0.00 0.00 0.00 91 1010.9
20260510073414 50 201 0.0 0.0 0.00 0.00 0.00 91 1010.9
20260510072642 50 201 0.0 0.0 0.00 0.00 0.00 91 1010.9
20260510072113 50 200 0.0 0.0 0.00 0.00 0.00 91 1010.7
20260510071611 50 201 0.0 0.0 0.00 0.00 0.00 91 1010.5
20260510071043 50 201 0.0 0.0 0.00 0.00 0.00 91 1010.6
20260510070813 50 201 0.0 0.0 0.00 0.00 0.00 91 1010.5
20260510070240 50 201 0.0 0.0 0.00 0.00 0.00 91 1010.4
20260510065516 50 201 0.0 0.0 0.00 0.00 0.00 91 1010.4
20260510065001 51 201 0.0 0.0 0.00 0.00 0.00 91 1010.5
20260510064726 51 201 0.0 0.0 0.00 0.00 0.00 91 1010.5
20260510063937 51 200 0.0 0.0 0.00 0.00 0.00 91 1010.6
20260510063410 51 201 0.0 0.0 0.00 0.00 0.00 91 1010.6
20260510062911 51 201 0.0 0.0 0.00 0.00 0.00 91 1010.7
20260510062349 51 201 0.0 0.0 0.00 0.00 0.00 91 1010.7
20260510061843 51 201 0.0 0.0 0.00 0.00 0.00 91 1010.7
20260510061344 51 201 0.0 0.0 0.00 0.00 0.00 91 1010.7
20260510060821 51 201 0.0 0.0 0.00 0.00 0.00 91 1010.8
20260510060300 51 201 0.0 0.0 0.00 0.00 0.00 91 1010.8
20260510055729 51 200 0.0 0.0 0.00 0.00 0.00 91 1010.8
20260510055228 51 201 0.0 0.0 0.00 0.00 0.00 91 1010.8
20260510054727 51 201 0.0 0.0 0.00 0.00 0.00 91 1010.8
20260510054207 51 201 0.0 0.0 0.00 0.00 0.00 90 1010.9
20260510053707 51 201 0.0 0.0 0.00 0.00 0.00 90 1011.0
20260510053142 51 201 0.0 0.0 0.00 0.00 0.00 90 1011.0
20260510052622 51 201 0.0 0.0 0.00 0.00 0.00 90 1011.0
20260510052100 51 201 0.0 0.0 0.00 0.00 0.00 90 1011.1
20260510051824 51 201 0.0 0.0 0.00 0.00 0.00 90 1011.2
20260510051038 51 201 0.0 0.0 0.00 0.00 0.00 90 1011.1
20260510050538 52 201 0.0 0.0 0.00 0.00 0.00 90 1011.2
20260510050050 52 201 0.0 0.0 0.00 0.00 0.00 90 1011.2
20260510045516 52 201 0.0 0.0 0.00 0.00 0.00 90 1011.2
20260510045004 52 201 0.0 0.0 0.00 0.00 0.00 90 1011.3
20260510044725 52 200 0.0 0.0 0.00 0.00 0.00 90 1011.2
20260510044219 52 201 0.0 0.0 0.00 0.00 0.00 90 1011.3
20260510043452 52 201 0.0 0.0 0.00 0.00 0.00 90 1011.3
20260510042953 52 201 0.0 0.0 0.00 0.00 0.00 90 1011.3
20260510042434 52 201 0.0 0.0 0.00 0.00 0.00 89 1011.3
20260510042359 52 201 0.0 0.0 0.00 0.00 0.00 89 1011.4
20260510041342 52 201 0.0 0.0 0.00 0.00 0.00 89 1011.3
20260510040817 52 201 0.0 0.0 0.00 0.00 0.00 89 1011.4
20260510040252 52 201 0.0 0.0 0.00 0.00 0.00 89 1011.4
20260510035724 52 201 0.0 0.0 0.00 0.00 0.00 89 1011.4
20260510035200 53 201 0.0 0.0 0.00 0.00 0.00 89 1011.5
20260510034655 53 200 0.0 0.0 0.00 0.00 0.00 89 1011.4
20260510034153 53 201 0.0 0.0 0.00 0.00 0.00 89 1011.4
20260510033650 53 201 0.0 0.0 0.00 0.00 0.00 88 1011.2
20260510033144 53 201 0.0 0.0 0.00 0.00 0.00 88 1011.2
20260510032645 53 201 0.0 0.0 0.00 0.00 0.00 88 1011.2
20260510032128 53 201 0.0 0.0 0.00 0.00 0.00 88 1011.0
20260510031547 53 201 0.0 0.0 0.00 0.00 0.00 88 1011.2
20260510031023 53 201 0.0 0.0 0.00 0.00 0.00 88 1011.0
20260510030455 53 201 0.0 0.0 0.00 0.00 0.00 88 1011.0
20260510025938 53 201 0.0 0.0 0.00 0.00 0.00 88 1010.9
20260510025435 54 201 0.0 0.0 0.00 0.00 0.00 88 1010.9
20260510024920 54 201 0.0 0.0 0.00 0.00 0.00 87 1011.0
20260510024419 54 201 0.0 0.0 0.00 0.00 0.00 87 1010.9
20260510023922 54 201 0.0 0.0 0.00 0.00 0.00 87 1010.9
20260510023415 54 201 0.0 0.0 0.00 0.00 0.00 87 1010.9
20260510022912 54 201 0.0 0.0 0.00 0.00 0.00 87 1011.0
20260510022343 54 200 0.0 0.0 0.00 0.00 0.00 87 1011.0
20260510021842 54 198 0.0 0.0 0.00 0.00 0.00 87 1011.0
20260510021757 54 198 0.0 0.0 0.00 0.00 0.00 87 1010.9
20260510020810 54 198 0.0 0.0 0.00 0.00 0.00 87 1010.9
20260510020307 54 198 0.0 0.0 0.00 0.00 0.00 86 1010.9
20260510015805 54 139 0.0 0.0 0.00 0.00 0.00 86 1010.9
20260510015236 55 139 0.0 0.0 0.00 0.00 0.00 86 1010.7
20260510014736 55 139 0.0 0.0 0.00 0.00 0.00 86 1010.7
20260510014208 55 139 0.0 0.0 0.00 0.00 0.00 86 1010.6
20260510013929 55 130 0.0 0.0 0.00 0.00 0.00 85 1010.8
20260510013139 55 130 0.0 0.0 0.00 0.00 0.00 85 1010.7
20260510012852 55 130 0.0 0.0 0.00 0.00 0.00 85 1010.7
20260510012124 56 130 0.0 0.0 0.00 0.00 0.00 84 1010.5
20260510011850 56 131 0.0 0.0 0.00 0.00 0.00 84 1010.6
20260510011121 56 130 0.0 0.0 0.00 0.00 0.00 83 1010.5
20260510010552 56 130 0.0 0.0 0.00 0.00 0.00 83 1010.4
20260510010342 56 131 0.0 0.0 0.00 0.00 0.00 83 1010.3
20260510005521 57 130 0.0 0.0 0.00 0.00 0.00 82 1010.3
20260510004958 57 130 0.0 0.0 0.00 0.00 0.00 82 1010.3
20260510004430 57 131 0.0 0.0 0.00 0.00 0.00 81 1010.1
20260510004150 58 130 0.0 1.0 0.00 0.00 0.00 81 1010.1
20260510003423 58 130 0.0 1.0 0.00 0.00 0.00 80 1010.1
20260510002921 58 131 0.0 1.0 0.00 0.00 0.00 80 1010.1
20260510002623 58 142 0.0 1.0 0.00 0.00 0.00 79 1010.0
20260510001850 59 135 0.0 2.0 0.00 0.00 0.00 79 1010.3
20260510001341 59 135 0.0 2.0 0.00 0.00 0.00 79 1010.3
20260510000815 59 79 0.0 1.0 0.00 0.00 0.00 78 1010.1
20260510000248 59 77 0.0 1.0 0.00 0.00 0.00 78 1010.0
20260509235745 60 77 0.0 2.0 0.00 0.00 0.00 77 1010.1
20260509235215 60 77 0.0 2.0 0.00 0.00 0.00 77 1010.1
20260509234652 60 105 0.0 2.0 0.00 0.00 0.00 76 1010.1
20260509234122 60 120 0.0 3.0 0.00 0.00 0.00 75 1010.1
20260509233619 61 88 0.0 3.0 0.00 0.00 0.00 75 1010.0
20260509233055 61 110 0.0 2.0 0.00 0.00 0.00 74 1010.0
20260509232550 61 113 0.0 2.0 0.00 0.00 0.00 73 1010.1
20260509232049 62 142 0.0 1.0 0.00 0.00 0.00 72 1009.9
20260509231744 62 142 0.0 1.0 0.00 0.00 0.00 72 1010.0
20260509231244 62 142 0.0 2.0 0.00 0.00 0.00 72 1010.0
20260509230454 62 94 0.0 2.0 0.00 0.00 0.00 72 1009.9
20260509225950 62 135 0.0 0.0 0.00 0.00 0.00 73 1009.9
20260509225645 62 150 0.0 1.0 0.00 0.00 0.00 74 1009.9
20260509224916 61 230 0.0 1.0 0.00 0.00 0.00 74 1009.9
20260509224351 61 288 0.0 1.0 0.00 0.00 0.00 73 1009.9
20260509223851 61 289 0.0 1.0 0.00 0.00 0.00 75 1009.8
20260509223342 61 291 0.0 3.0 0.00 0.00 0.00 75 1010.0
20260509222821 61 146 0.0 3.0 0.00 0.00 0.00 75 1010.0
20260509222252 61 93 1.0 3.0 0.00 0.00 0.00 75 1010.1
20260509221752 61 116 0.0 3.0 0.00 0.00 0.00 75 1010.0
20260509221500 61 238 0.0 2.0 0.00 0.00 0.00 76 1009.9
20260509220736 61 208 0.0 3.0 0.00 0.00 0.00 76 1010.0
20260509220236 60 187 0.0 3.0 0.00 0.00 0.00 77 1010.1
20260509215712 60 218 0.0 2.0 0.00 0.00 0.00 77 1010.1
20260509215208 61 226 0.0 1.0 0.00 0.00 0.00 76 1010.1
20260509214708 61 229 0.0 1.0 0.00 0.00 0.00 76 1010.1
20260509214156 61 214 0.0 1.0 0.00 0.00 0.00 75 1010.1
20260509213655 61 210 0.0 1.0 0.00 0.00 0.00 75 1010.1
20260509213153 61 210 0.0 2.0 0.00 0.00 0.00 75 1010.0
20260509212652 61 120 0.0 2.0 0.00 0.00 0.00 75 1010.1
20260509212353 61 118 0.0 1.0 0.00 0.00 0.00 75 1010.0
20260509211627 61 114 0.0 1.0 0.00 0.00 0.00 75 1009.9
20260509211109 61 110 0.0 1.0 0.00 0.00 0.00 75 1010.0
20260509210624 61 110 0.0 1.0 0.00 0.00 0.00 75 1010.0
20260509210053 61 113 0.0 2.0 0.00 0.00 0.00 75 1009.9
20260509205524 61 135 0.0 3.0 0.00 0.00 0.00 74 1010.0
20260509205224 61 227 0.0 3.0 0.00 0.00 0.00 73 1010.0
20260509204701 62 248 1.0 3.0 0.00 0.00 0.00 74 1010.1
20260509203933 62 290 1.0 3.0 0.00 0.00 0.00 72 1010.3
20260509203411 62 241 0.0 3.0 0.00 0.00 0.00 72 1009.9
20260509202846 62 103 0.0 1.0 0.00 0.00 0.00 73 1010.0
20260509202343 62 194 0.0 5.0 0.00 0.00 0.00 72 1009.9
20260509202326 62 284 1.0 5.0 0.00 0.00 0.00 71 1009.9
20260509201544 62 269 1.0 4.0 0.00 0.00 0.00 72 1010.0
20260509200753 62 304 0.0 3.0 0.00 0.00 0.00 73 1010.0
20260509200246 62 97 1.0 5.0 0.00 0.00 0.00 73 1010.0
20260509195758 61 214 1.0 6.0 0.00 0.00 0.00 72 1010.1
20260509195225 61 134 1.0 6.0 0.00 0.00 0.00 72 1009.9
20260509194727 62 207 1.0 6.0 0.00 0.00 0.00 72 1009.9
20260509194225 62 46 1.0 6.0 0.00 0.00 0.00 70 1010.0
20260509193724 62 214 1.0 5.0 0.00 0.00 0.00 71 1010.1
20260509193228 62 354 1.0 7.0 0.00 0.00 0.00 70 1010.5
20260509192700 62 257 1.0 7.0 0.00 0.00 0.00 70 1010.5
20260509192131 62 222 2.0 6.0 0.00 0.00 0.00 70 1010.5
20260509191625 61 276 1.0 5.0 0.00 0.00 0.00 70 1010.6
20260509191100 61 91 1.0 4.0 0.00 0.00 0.00 71 1010.7
20260509190528 61 276 1.0 5.0 0.00 0.00 0.00 70 1010.8
20260509190224 61 19 1.0 6.0 0.00 0.00 0.00 71 1010.9
20260509185452 61 302 2.0 6.0 0.00 0.00 0.00 71 1011.0
20260509184956 61 310 1.0 6.0 0.00 0.00 0.00 70 1011.0
20260509184428 61 294 1.0 4.0 0.00 0.00 0.00 71 1011.1
20260509183903 61 302 1.0 5.0 0.00 0.00 0.00 70 1010.9
20260509183333 61 283 1.0 5.0 0.00 0.00 0.00 70 1011.0
20260509182831 61 311 1.0 5.0 0.00 0.00 0.00 69 1010.8
20260509182330 61 96 2.0 7.0 0.00 0.00 0.00 69 1010.9
20260509181829 62 295 2.0 7.0 0.00 0.00 0.00 69 1011.0
20260509181332 63 294 2.0 9.0 0.00 0.00 0.00 69 1011.0
20260509180804 63 333 2.0 10.0 0.00 0.00 0.00 69 1011.1
20260509180300 64 290 2.0 10.0 0.00 0.00 0.00 67 1011.1
20260509175757 64 274 1.0 7.0 0.00 0.00 0.00 65 1011.1
20260509175256 65 305 1.0 4.0 0.00 0.00 0.00 63 1011.1
20260509174730 65 298 1.0 4.0 0.00 0.00 0.00 63 1011.1
20260509174224 65 287 1.0 3.0 0.00 0.00 0.00 62 1011.0
20260509173721 65 291 1.0 3.0 0.00 0.00 0.00 62 1011.0
20260509173215 65 306 1.0 4.0 0.00 0.00 0.00 61 1011.0
20260509172713 66 295 1.0 4.0 0.00 0.00 0.00 63 1010.9
20260509172159 66 287 1.0 4.0 0.00 0.00 0.00 64 1011.0
20260509171702 66 282 1.0 4.0 0.00 0.00 0.00 63 1011.1
20260509171136 66 241 1.0 3.0 0.00 0.00 0.00 64 1010.9